Location: Brahman Valley
(40.6513°N, 111.8855°W)
Time: 02:11:57
(UTC+00:00)

Transit 2A - Visible Passes

Search period start: 12 May 2021 00:00
Search period end: 22 May 2021 00:00
Orbit: 602 x 957 km, 66.7° (Epoch: 11 May)

Date Brightness Start Highest point End Pass type
(mag) Time Alt. Az. Time Alt. Az. Time Alt. Az.
12 May 6.2 08:55:37 51° ENE 08:55:37 51° ENE 08:59:04 10° NE visible
12 May 7.7 10:36:06 11° WNW 10:38:14 15° NW 10:40:48 10° N visible
13 May 7.2 08:22:13 29° ENE 08:22:13 29° ENE 08:24:44 10° NE visible
13 May 7.3 10:02:41 19° WNW 10:03:50 21° NW 10:07:13 10° N visible
14 May 7.8 07:48:47 17° ENE 07:48:47 17° ENE 07:50:12 10° NE visible
14 May 6.8 09:29:15 30° WNW 09:29:31 31° NW 09:33:25 10° N visible
15 May 8.3 07:15:18 10° ENE 07:15:18 10° ENE 07:15:20 10° ENE visible
15 May 6.4 08:55:46 44° NW 08:55:46 44° NW 08:59:28 10° NNE visible
16 May 6.5 08:22:15 46° N 08:22:15 46° N 08:25:24 10° NNE visible
17 May 7.0 07:48:42 34° NE 07:48:42 34° NE 07:51:14 10° NNE visible
17 May 7.9 09:29:10 13° WNW 09:30:27 14° NW 09:32:46 10° NNW visible
18 May 7.5 07:15:07 23° NE 07:15:07 23° NE 07:16:55 10° NE visible
18 May 7.5 08:55:34 19° WNW 08:56:03 20° NW 08:59:17 10° N visible
19 May 7.9 06:41:29 15° ENE 06:41:29 15° ENE 06:42:26 10° NE visible
19 May 7.1 08:21:56 28° NW 08:21:56 28° NW 08:25:30 10° N visible
20 May 6.8 07:48:15 38° NNW 07:48:15 38° NNW 07:51:35 10° NNE visible
21 May 6.6 07:14:31 42° N 07:14:31 42° N 07:17:32 10° NNE visible
